#timestamp,LO_Frequency,Temp,Hum 
1439020815.7,286078801.4,31.2,43.6 
1439020835.8,286078799.1,31.2,43.6 
1439020856.0,286078800.2,31.2,43.6 
1439020875.2,286078801.2,31.2,43.6 
1439020895.3,286078799.9,31.2,43.6 
1439020915.5,286078798.8,31.2,43.6 
1439020935.6,286078799.7,31.2,43.6 
1439020955.7,286078799.1,31.2,43.1 
1439020975.9,286078800.8,31.2,43.1 
1439020996.0,286078800.9,31.2,43.6 
1439021015.2,286078803.0,31.2,43.6 
1439021035.3,286078797.7,31.2,43.6 
1439021055.5,286078797.5,31.2,43.6 
1439021075.6,286078802.2,31.2,43.1 
1439021095.7,286078799.7,31.2,43.1 
1439021115.9,286078799.4,31.2,43.1 
1439021136.0,286078799.0,31.2,43.1 
1439021155.2,286078800.3,31.2,43.1 
1439021175.4,286078800.3,31.2,43.1 
1439021195.5,286078798.8,31.2,43.1 
1439021215.6,286078801.5,31.2,43.1 
1439021235.7,286078796.9,31.2,43.1 
1439021255.9,286078800.9,31.2,43.1 
1439021276.0,286078802.9,31.2,43.1 
1439021295.2,286078797.2,31.2,43.1 
1439021315.3,286078799.8,31.2,43.1 
1439021335.5,286078798.5,31.2,43.1 
1439021355.6,286078802.7,31.2,42.6 
1439021375.7,286078798.6,31.2,42.6 
1439021395.9,286078797.7,31.2,42.6 
1439021416.0,286078800.4,31.2,43.1 
1439021435.2,286078802.2,31.2,43.1 
1439021455.3,286078798.8,31.2,43.1 
1439021475.5,286078803.1,31.2,42.6 
1439021495.6,286078797.4,31.2,42.6 
1439021515.7,286078801.2,31.2,43.1 
1439021535.8,286078799.8,31.2,42.6 
1439021556.0,286078799.4,31.2,42.6 
1439021576.1,286078799.1,31.2,42.6 
1439021595.3,286078801.4,31.2,42.6 
1439021615.4,286078797.5,31.2,42.6 
1439021635.6,286078798.5,31.2,42.6 
1439021655.7,286078802.1,31.2,42.6 
1439021675.8,286078802.4,31.2,42.6 
1439021695.9,286078798.9,31.2,42.6 
1439021716.1,286078796.8,31.2,42.6 
1439021735.3,286078801.7,31.2,42.6 
1439021755.4,286078799.1,31.2,42.6 
1439021775.6,286078802.9,31.2,42.6 
1439021795.7,286078798.3,31.2,42.6 
1439021815.8,286078800.8,31.2,42.6 
1439021836.0,286078796.8,31.2,42.6 
1439021855.2,286078800.2,31.2,42.6 
1439021875.3,286078800.2,31.2,42.6 
1439021895.5,286078802.8,31.2,42.1 
1439021915.6,286078797.3,31.2,42.1 
1439021935.8,286078800.0,31.2,42.1 
1439021955.9,286078800.5,31.2,42.1 
1439021976.0,286078799.6,31.2,42.1 
1439021995.2,286078800.9,31.2,42.1 
1439022015.4,286078799.2,31.2,42.1 
1439022035.5,286078798.7,31.2,42.1 
1439022055.6,286078804.7,31.2,42.1 
1439022075.7,286078797.6,31.2,42.1 
1439022095.9,286078801.4,31.2,42.1 
1439022116.0,286078797.3,31.2,42.1 
1439022135.2,286078798.8,31.2,42.1 
1439022155.3,286078800.0,31.2,42.1 
1439022175.5,286078802.5,31.2,42.1 
1439022195.6,286078796.8,31.2,42.1 
1439022215.7,286078801.0,31.2,42.1 
1439022235.8,286078798.4,31.2,42.1 
1439022256.0,286078798.7,31.2,42.1 
1439022276.1,286078802.2,31.2,42.1 
1439022295.3,286078800.7,31.2,42.1 
1439022315.5,286078798.4,31.2,42.1 
1439022335.6,286078801.8,31.2,42.1 
1439022355.7,286078799.1,31.2,42.1 
1439022375.9,286078799.0,31.2,42.1 
1439022396.0,286078802.9,31.2,42.1 
1439022415.2,286078797.4,31.2,42.1 
1439022435.4,286078800.3,31.2,42.1 
1439022455.5,286078798.4,31.2,42.1 
1439022475.6,286078801.1,31.2,42.1 
1439022495.7,286078798.5,31.2,42.1 
1439022515.9,286078800.6,31.2,42.1 
1439022536.0,286078802.7,31.2,42.1 
1439022555.2,286078795.2,31.2,42.1 
1439022575.4,286078803.0,31.2,42.1 
1439022595.5,286078797.7,31.2,42.1 
1439022615.6,286078801.2,31.2,42.1 
1439022635.8,286078799.5,31.2,42.1 
1439022655.9,286078801.4,31.2,42.1 
1439022676.0,286078799.4,31.2,42.1 
1439022695.2,286078799.3,31.2,42.1 
1439022715.4,286078800.5,31.2,42.1 
1439022735.5,286078798.4,31.2,42.1 
1439022755.6,286078802.8,31.2,42.1 
1439022775.8,286078798.5,31.2,42.1 
1439022795.9,286078802.2,31.2,42.1 
1439022816.1,286078802.9,31.2,42.1 
1439022835.3,286078797.8,31.2,42.1 
1439022855.4,286078798.8,31.2,42.1 
1439022875.5,286078800.9,31.2,42.1 
1439022895.7,286078796.9,31.2,42.1 
1439022915.8,286078799.2,31.2,42.1 
1439022935.9,286078799.1,31.2,42.1 
1439022956.1,286078801.1,31.2,42.1 
1439022975.3,286078796.9,31.2,42.1 
1439022995.4,286078802.6,31.2,42.1 
1439023015.6,286078801.1,31.2,42.1 
1439023035.7,286078799.1,31.2,42.1 
1439023055.8,286078803.6,31.2,41.6 
1439023076.0,286078805.3,31.9,39.1 
1439023096.1,286078808.9,31.9,38.1 
1439023115.3,286078802.5,31.2,38.6 
1439023135.4,286078801.9,31.2,39.1 
1439023155.6,286078798.1,31.2,39.6 
1439023175.7,286078798.1,31.2,40.1 
1439023195.8,286078796.7,31.2,41.1 
1439023216.0,286078796.7,31.2,41.6 
1439023235.2,286078799.2,31.2,41.6 
1439023255.3,286078800.1,31.2,42.1 
1439023275.5,286078799.6,31.2,42.1 
1439023295.6,286078797.2,31.2,42.1 
1439023315.8,286078800.5,31.2,42.1 
1439023335.9,286078801.4,31.2,42.1 
1439023356.0,286078795.9,31.2,42.6 
1439023375.3,286078801.9,31.2,42.6 
1439023395.4,286078798.4,31.2,42.6 
1439023415.5,286078800.6,31.2,42.6 
1439023435.7,286078798.6,31.2,42.6 
1439023455.8,286078801.9,31.2,42.6 
1439023475.9,286078802.6,31.2,42.6 
1439023496.1,286078797.9,31.2,42.6 
1439023515.3,286078799.3,31.2,42.6 
1439023535.4,286078798.4,31.2,42.6 
1439023555.6,286078801.1,31.2,42.6 
1439023575.7,286078800.8,31.2,42.6 
1439023595.8,286078799.5,31.2,42.6 
1439023616.0,286078799.8,31.2,42.6 
1439023636.1,286078797.3,31.2,42.6 
1439023655.3,286078800.1,31.2,42.6 
1439023675.5,286078796.9,31.2,42.6 
1439023695.6,286078800.6,31.2,43.1 
1439023715.7,286078799.5,31.2,43.1 
1439023735.8,286078801.3,31.2,43.1 
1439023756.0,286078799.1,31.2,42.6 
1439023776.1,286078799.5,31.2,42.6 
1439023795.3,286078800.9,31.2,42.6 
1439023815.5,286078797.1,31.2,42.6 
1439023835.6,286078802.5,31.2,42.6 
1439023855.7,286078797.6,31.2,42.6 
1439023875.9,286078802.0,31.2,42.6 
1439023896.0,286078797.3,31.2,42.6 
1439023915.2,286078802.7,31.2,42.6 
1439023935.4,286078799.6,31.2,42.6 
1439023955.5,286078796.8,31.2,42.6 
1439023975.6,286078803.0,31.2,42.6 
1439023995.8,286078798.9,31.2,42.6 
1439024015.9,286078798.9,31.2,42.6 
1439024036.0,286078801.3,31.2,42.6 
1439024055.3,286078798.8,31.2,42.6 
1439024075.4,286078800.0,31.2,42.6 
1439024095.5,286078804.6,31.2,42.6 
1439024115.6,286078796.8,31.2,42.6 
1439024135.8,286078801.5,31.2,42.6 
1439024155.9,286078799.3,31.2,42.6 
1439024176.0,286078799.2,31.2,42.6 
1439024195.3,286078801.2,31.2,42.6 
1439024215.4,286078801.2,31.2,42.6 
1439024235.5,286078797.3,31.2,42.6 
1439024255.7,286078800.0,31.2,42.6 
1439024275.8,286078800.8,31.2,42.6 
1439024295.9,286078799.2,31.2,42.6 
1439024316.0,286078800.1,31.2,42.6 
1439024335.3,286078800.9,31.2,42.6 
1439024355.4,286078796.9,31.2,43.1 
1439024375.5,286078804.6,31.2,42.6 
1439024395.6,286078797.7,31.2,42.6 
